Overview Statistics Trail Chart Weather Telemetry Raw packets
 

This is the latest recevied weather packets stored in our database for station/object KD0MAC. If no packets are shown the sender has not sent any weather packets the latest 10 day(s).

<< 42 43 44 45 46 47 48 >>
Time Temp. Humidity Pressure Rain* Wind** Luminosity Snow
1788455076 33.33° C 38% 1010.8 hPa 0 mm - 505 W/m² -
1788455024 33.33° C 38% 1010.8 hPa 0 mm - 505 W/m² -
1788454727 33.33° C 40% 1011.2 hPa 0 mm - 498 W/m² -
1788454425 32.78° C 39% 1011.2 hPa 0 mm - 492 W/m² -
1788454124 32.78° C 39% 1010.8 hPa 0 mm - 485 W/m² -
1788453825 32.78° C 40% 1010.8 hPa 0 mm - 480 W/m² -
1788453525 32.78° C 40% 1011.2 hPa 0 mm - 471 W/m² -
1788453276 32.22° C 39% 1011.2 hPa 0 mm - 464 W/m² -
1788452977 32.78° C 40% 1011.2 hPa 0 mm - 460 W/m² -
1788452925 32.78° C 40% 1011.2 hPa 0 mm - 460 W/m² -
1788452624 32.22° C 38% 1010.8 hPa 0 mm - 451 W/m² -
1788452327 32.22° C 40% 1010.8 hPa 0 mm - 441 W/m² -
1788452025 32.22° C 40% 1010.8 hPa 0 mm - 432 W/m² -
1788451801 31.67° C 39% 1010.8 hPa 0 mm - 420 W/m² -
1788451476 31.11° C 42% 1010.8 hPa 0 mm - 380 W/m² -
1788451175 30.56° C 44% 1010.8 hPa 0 mm - 406 W/m² -
1788450875 30° C 46% 1010.8 hPa 0 mm - 264 W/m² -
1788450577 29.44° C 47% 1010.8 hPa 0 mm - 148 W/m² -
1788450525 29.44° C 47% 1010.8 hPa 0 mm - 148 W/m² -
1788450233 29.44° C 48% 1010.8 hPa 0 mm - 202 W/m² -
1788449976 30° C 48% 1010.8 hPa 0 mm - 410 W/m² -
1788449926 30° C 48% 1010.8 hPa 0 mm - 410 W/m² -
1788449677 30.56° C 46% 1010.8 hPa 0 mm - 329 W/m² -
1788449624 30.56° C 46% 1010.8 hPa 0 mm - 329 W/m² -
1788449377 30.56° C 46% 1010.8 hPa 0 mm - 131 W/m² -

* Rain latest hour (hover to see other rain measurements)
** Current wind speed in m/s (hover to see current wind gust speed)